Salem, OR

2:54 PM PDT on April 23, 2018 (GMT -0700)
McNary

Weather History for KSLE - August, 2013

Change the Weather History Date:

Saturday, August 31, 2013

  Actual Average Record
Temperature  
Mean Temperature 73 °F 66 °F  
Max Temperature 91 °F 81 °F 100 °F (1987)
Min Temperature 55 °F 51 °F 37 °F (1920)
Degree Days  
Heating Degree Days 0 1  
Month to date heating degree days 3 28  
Since 1 June heating degree days 84 186  
Since 1 July heating degree days 5 56  
Cooling Degree Days 8 2  
Month to date cooling degree days 188 106  
Year to date cooling degree days 427 252  
Since 1 June cooling degree days 417 243  
Growing Degree Days 23 (Base 50)    
Moisture  
Dew Point 56 °F    
Average Humidity 61    
Maximum Humidity 93    
Minimum Humidity 29    
Precipitation  
Precipitation 0.00 in 0.03 in 1.14 in (1971)
Month to date precipitation 0.35 0.45  
Year to date precipitation 11.96 22.00  
Sea Level Pressure  
Sea Level Pressure 29.91 in    
Wind  
Wind Speed 3 mph (NW)    
Max Wind Speed 10 mph    
Max Gust Speed 14 mph    
Visibility 10 miles    
Events      
T = Trace of Precipitation, MM = Missing Value Source: NWS Daily Summary

Daily Weather History Graph

Daily Weather History Graph

Search for Another Location

Airport or City:

Astronomy

Aug. 31, 2013 Rise Set
Actual Time 6:33 AM PDT 7:50 PM PDT
Civil Twilight 6:03 AM PDT 8:20 PM PDT
Nautical Twilight 5:26 AM PDT 8:56 PM PDT
Astronomical Twilight 4:47 AM PDT 9:35 PM PDT
Moon 1:59 AM PDT (8/31) 4:58 PM PDT (8/31)
Length of Visible Light 14h 17m
Length of Day
13h 16m
Waning Crescent, 20% of the Moon is Illuminated
Aug 31
Waning Crescent
Sep 5
New
Sep 12
First Quarter
Sep 19
Full
Sep 26
Last Quarter

Hourly Weather History & Observations

Time (PDT) Temp. Heat Index Dew Point Humidity Pressure Visibility Wind Dir Wind Speed Gust Speed Precip Events Conditions
12:56 AM 64.0 °F - 57.0 °F 78% 30.02 in 10.0 mi NNW 4.6 mph - N/A   Clear
1:56 AM 64.0 °F - 57.0 °F 78% 30.01 in 10.0 mi NW 4.6 mph - N/A   Clear
2:56 AM 63.0 °F - 57.0 °F 81% 30.00 in 10.0 mi NNW 3.5 mph - N/A   Clear
3:56 AM 61.0 °F - 55.9 °F 83% 29.99 in 10.0 mi Calm Calm - N/A   Clear
4:56 AM 57.0 °F - 54.0 °F 89% 29.99 in 10.0 mi Calm Calm - N/A   Clear
5:56 AM 55.9 °F - 54.0 °F 93% 29.99 in 10.0 mi Calm Calm - N/A   Clear
6:56 AM 55.0 °F - 54.0 °F 96% 29.99 in 10.0 mi Calm Calm - N/A   Clear
7:56 AM 62.1 °F - 57.9 °F 86% 29.98 in 10.0 mi NNW 3.5 mph - N/A   Clear
8:56 AM 66.0 °F - 57.9 °F 75% 29.97 in 10.0 mi North 4.6 mph - N/A   Clear
9:56 AM 69.1 °F - 57.9 °F 68% 29.95 in 10.0 mi North 5.8 mph - N/A   Clear
10:56 AM 73.0 °F - 57.9 °F 59% 29.94 in 10.0 mi NNW 5.8 mph - N/A   Clear
11:56 AM 77.0 °F - 57.9 °F 52% 29.91 in 10.0 mi NW 6.9 mph - N/A   Clear
12:56 PM 82.0 °F 81.7 °F 57.0 °F 42% 29.89 in 10.0 mi NW 8.1 mph - N/A   Clear
1:56 PM 82.9 °F 82.1 °F 55.9 °F 39% 29.88 in 10.0 mi East 3.5 mph - N/A   Clear
2:56 PM 84.9 °F 83.7 °F 55.9 °F 37% 29.86 in 10.0 mi Calm Calm - N/A   Clear
3:56 PM 87.1 °F 85.3 °F 55.0 °F 33% 29.84 in 10.0 mi North 4.6 mph - N/A   Clear
4:56 PM 88.0 °F 86.1 °F 55.0 °F 32% 29.82 in 10.0 mi Variable 4.6 mph - N/A   Clear
5:56 PM 89.1 °F 86.9 °F 54.0 °F 30% 29.81 in 10.0 mi Calm Calm - N/A   Clear
6:56 PM 84.9 °F 83.9 °F 57.0 °F 38% 29.81 in 10.0 mi WNW 9.2 mph - N/A   Clear
7:56 PM 78.1 °F - 55.9 °F 46% 29.82 in 10.0 mi West 5.8 mph - N/A   Clear
8:56 PM 73.9 °F - 55.9 °F 53% 29.83 in 10.0 mi West 6.9 mph - N/A   Clear
9:56 PM 71.1 °F - 55.0 °F 57% 29.85 in 10.0 mi SSW 6.9 mph - N/A   Clear
10:56 PM 69.1 °F - 55.0 °F 61% 29.86 in 10.0 mi WSW 3.5 mph - N/A   Clear
11:56 PM 64.9 °F - 55.9 °F 73% 29.87 in 10.0 mi South 3.5 mph - N/A   Clear